Weather observations for the past three days for
Arlington Municipal Airport
Imperial (Metric)
Date Time (cdt) Wind (mph) Vis. (mi.) Weather Sky Cond. Temperature (ºF) Relative Humidity Wind Chill (°F) Heat Index (°F) Pressure Precipitation (in)
Air Dwpt 6 hour altimeter (in) sea level (mb) 1 hr 3 hr 6 hr
Max. Min.
13 23:53 Calm 10.00 Fair CLR 80.1 66.9 64% 82 29.96 1013.5
13 22:53 SE 6 10.00 Fair CLR 82 68 63% 85 29.94 1012.9
13 21:53 SE 9 10.00 Fair CLR 84.9 69.1 59% 89 29.9 1011.6
13 20:53 SE 8 10.00 Fair CLR 86 71.1 61% 92 29.89 1011.2
13 19:53 E 7 10.00 Fair CLR 90 68 48% 94 29.9 1011.4
13 18:53 SE 8 10.00 Fair CLR 91.9 66.9 93.9 89.1 44% 95 29.9 1011.4
13 17:53 E 6 10.00 Fair CLR 93 68 44% 97 29.91 1011.8
13 16:53 Calm 10.00 Fair CLR 93 68 44% 97 29.92 1012.3
13 15:53 E 7 10.00 Fair CLR 93 69.1 46% 98 29.94 1012.7
13 14:53 E 9 10.00 A Few Clouds FEW048 91.9 70 49% 98 29.95 1013.3
13 13:53 SE 5 10.00 Partly Cloudy SCT045 90 70 52% 95 29.97 1013.9
13 12:53 SE 12 10.00 Mostly Cloudy SCT041 BKN049 89.1 70 89.1 73 53% 94 29.98 1014.3
13 11:53 S 7 10.00 Partly Cloudy SCT036 87.1 71.1 59% 93 29.99 1014.4
13 10:53 S 8 10.00 A Few Clouds FEW034 86 71.1 61% 92 29.99 1014.5
13 09:53 SE 10 10.00 Fair CLR 84 69.1 61% 88 29.99 1014.5
13 08:53 SE 9 10.00 Fair CLR 81 68 65% 84 29.98 1014.2
13 07:53 SE 7 10.00 Fair CLR 77 69.1 77% 79 29.97 1013.7
13 06:53 SE 6 10.00 Fair CLR 73 69.1 77 71.1 87% 29.95 1013.1
13 05:53 S 3 10.00 Fair CLR 71.1 69.1 94% 29.94 1012.7
13 04:53 SE 3 10.00 Fair CLR 75 69.1 82% 75 29.93 1012.4
13 03:53 SE 3 10.00 Fair CLR 73.9 69.1 85% 29.93 1012.5
13 02:53 Calm 10.00 Fair CLR 73.9 70 88% 29.93 1012.6
13 01:53 SE 3 10.00 Fair CLR 75 70 84% 75 29.93 1012.6
13 00:53 SE 5 10.00 Fair CLR 77 70 88 77 79% 79 29.94 1013.0
12 23:53 SE 5 10.00 Fair CLR 78.1 69.1 74% 80 29.95 1013.3
12 22:53 SE 7 10.00 Fair CLR 80.1 69.1 69% 83 29.94 1012.9
12 21:53 SE 7 10.00 Fair CLR 81 70 69% 84 29.93 1012.5
12 20:53 E 9 10.00 Fair CLR 84 69.1 61% 88 29.91 1011.9
12 19:53 SE 12 10.00 Fair CLR 87.1 69.1 55% 91 29.91 1011.8
12 18:53 SE 9 10.00 Fair CLR 88 70 91 87.1 55% 93 29.91 1011.8
12 17:53 E 8 10.00 Fair CLR 89.1 70 53% 94 29.91 1011.9
12 16:53 E 8 10.00 A Few Clouds FEW070 89.1 70 53% 94 29.93 1012.6
12 15:53 SE 6 10.00 Fair CLR 89.1 70 53% 94 29.94 1012.9
12 14:53 SE 9 10.00 Fair CLR 90 69.1 50% 95 29.95 1013.3
12 13:53 Vrbl 3 10.00 A Few Clouds FEW043 88 69.1 54% 92 29.97 1013.9
12 12:53 Vrbl 5 10.00 A Few Clouds FEW037 87.1 70 88 75.9 57% 92 30 1014.7
12 11:53 Calm 10.00 Fair CLR 84.9 70 61% 89 30 1015.0
12 10:53 SE 3 10.00 Fair CLR 82.9 68 61% 86 30.01 1015.2
12 09:53 SE 7 10.00 Fair CLR 81 68 65% 84 30.01 1015.1
12 08:53 SE 7 10.00 Fair CLR 80.1 68 67% 83 30 1014.9
12 06:53 Calm 10.00 Mostly Cloudy BKN035 75.9 69.1 79 73.9 79% 77 29.98 1014.2
12 05:53 Calm 10.00 Mostly Cloudy FEW028 BKN041 BKN060 75 69.1 82% 75 29.97 1014.0
12 04:53 Calm 10.00 Overcast OVC100 75 69.1 82% 75 29.96 1013.7
12 03:53 E 6 10.00 Overcast BKN044 BKN055 OVC120 78.1 69.1 74% 80 29.95 1013.4
12 02:53 NE 3 10.00 Overcast BKN040 OVC120 78.1 70 76% 80 29.95 1013.4
12 01:53 Calm 10.00 Overcast BKN043 OVC100 78.1 70 76% 80 29.96 1013.5
12 00:53 NE 3 10.00 Overcast OVC120 78.1 69.1 81 73.9 74% 80 29.96 1013.4
11 23:53 NE 5 10.00 Overcast OVC100 78.1 69.1 74% 80 29.96 1013.5
11 22:53 NE 3 10.00 Mostly Cloudy BKN100 73.9 70 88% 29.94 1012.8
11 21:53 Calm 10.00 Fair CLR 78.1 70 76% 80 29.91 1011.9
11 20:53 E 6 10.00 A Few Clouds FEW110 79 69.1 72% 82 29.9 1011.7
11 19:53 NE 8 10.00 Fair CLR 80.1 69.1 69% 83 29.89 1011.4
11 18:53 E 6 10.00 Fair CLR 81 70 82 75 69% 84 29.89 1011.2 0.03
11 17:53 Vrbl 3 10.00 Fair CLR 80.1 69.1 69% 83 29.9 1011.4
11 16:53 E 8 10.00 Fair CLR 79 70 74% 82 29.91 1011.8
11 15:53 NE 6 10.00 A Few Clouds FEW039 78.1 70 76% 80 29.91 1012.1 0.03
11 14:53 Calm 10.00 Light Rain BKN100 BKN120 75 70 84% 75 29.94 1013.0 0.03
11 13:53 W 8 10.00 Thunderstorm in Vicinity FEW034 SCT043 SCT100 77 66.9 71% 79 29.96 1013.6
11 12:53 W 5 10.00 Overcast FEW017 BKN026 OVC035 81 73 81 73.9 77% 86 29.95 1013.2
11 11:53 Calm 10.00 Overcast BKN017 BKN024 OVC028 80.1 73 79% 84 29.96 1013.7
11 10:53 Vrbl 6 10.00 Overcast OVC014 80.1 72 76% 84 29.94 1012.9
11 09:53 E 8 10.00 A Few Clouds FEW015 79 71.1 77% 82 29.93 1012.6
11 08:53 E 8 10.00 Mostly Cloudy BKN010 BKN017 78.1 70 76% 80 29.92 1012.3
11 07:53 E 7 10.00 Overcast OVC012 75 69.1 82% 75 29.94 1012.8
11 06:53 NE 6 10.00 Overcast OVC012 73.9 69.1 75.9 73 85% 29.93 1012.6
11 05:53 E 7 10.00 Overcast OVC013 73.9 69.1 85% 29.92 1012.2
11 04:53 NE 5 10.00 Overcast OVC015 75 69.1 82% 75 29.92 1012.0
11 03:53 E 3 10.00 Mostly Cloudy BKN017 BKN025 75 69.1 82% 75 29.91 1011.9
11 02:53 E 3 10.00 Overcast OVC030 75 70 84% 75 29.91 1011.9
11 01:53 Calm 10.00 A Few Clouds FEW031 73.9 69.1 85% 29.91 1011.9
11 00:53 E 3 10.00 Fair CLR 75.9 70 82.9 75.9 82% 77 29.92 1012.0 0.03
Date Time (cdt) Wind (mph) Vis. (mi.) Weather Sky Cond. Air Dwpt Max. Min. Relative Humidity Wind Chill (°F) Heat Index (°F) altimeter (in) sea level (mb) 1 hr 3 hr 6 hr
6 hour
Temperature (ºF) Pressure Precipitation (in)